Regional Weather Roundup
Issued by NWS

Home | Current Version | Previous Version | Graphics & Text | Print | Product List | Glossary Off
Versions: 1 2 3 4 5 6 7 8 9 10 11 12 13 14 15 16 17 18 19 20 21 22 23 24 25 26 27 28 29 30 31 32 33 34 35 36 37 38 39 40 41 42 43 44 45 46 47 48 49 50

000
ASUS43 KLSX 270959
RWRMO

WEATHER SUMMARY FOR MISSOURI
NATIONAL WEATHER SERVICE SPRINGFIELD MO
400 AM CST THU NOV 27 2014

NOTE: "FAIR" INDICATES FEW OR NO CLOUDS BELOW 12,000 FEET WITH NO
       SIGNIFICANT WEATHER AND/OR OBSTRUCTIONS TO VISIBILITY.
       CURRENT SKY AND/OR WEATHER CONDITIONS ARE NOT AVAILABLE FOR
       CHILLICOTHE AND FARMINGTON.

MOZ001>031-035>038-043-044-053-054-271100-
...NORTHERN AND WESTERN MISSOURI...

CITY           SKY/WX    TMP DP  RH WIND       PRES   REMARKS
KANSAS CTY INT CLOUDY    26  20  77 N10       30.47R WCI  16
KANSAS C DTWN  CLOUDY    28  20  71 NW8       30.49R WCI  20
LEE`S SUMMIT   CLOUDY    27  20  75 N13       30.47R WCI  16
ST JOSEPH      CLOUDY    25  19  78 N12       30.50R WCI  14
CHILLICOTHE      N/A     27  21  78 NW9       30.48R WCI  18
KIRKSVILLE     CLOUDY    26  23  88 NW8       30.41R WCI  18

$$
MOZ066>068-077>081-088>096-101>105-271100-
...SOUTHWEST MISSOURI...

CITY           SKY/WX    TMP DP  RH WIND       PRES   REMARKS
SPRINGFIELD    CLOUDY    30  23  75 N8        30.40S WCI  22
JOPLIN         CLEAR     26  21  81 N3        30.47R

$$
MOZ032>034-039>042-045>050-055>058-069>072-271100-
...CENTRAL MISSOURI...

CITY           SKY/WX    TMP DP  RH WIND       PRES   REMARKS
COLUMBIA       CLOUDY    31  26  82 NW13      30.41R WCI  21
JEFFERSON CITY CLOUDY    33  27  78 NW7       30.41R WCI  27
ROLLA          CLOUDY    31  27  85 NW12      30.35R WCI  22
SEDALIA        CLOUDY    30  24  78 NW16      30.44S WCI  19
WHITEMAN AFB   MOCLDY    28  23  80 NW14G20   30.44F WCI  17
OSAGE BEACH    CLOUDY    32  27  80 NW7       30.40F WCI  26

$$
MOZ051-052-059>065-271100-
...EAST CENTRAL MISSOURI...

CITY           SKY/WX    TMP DP  RH WIND       PRES   REMARKS
ST LOUIS INTL  LGT SNOW  32  27  81 NW12      30.37R FOG     WCI  23
SPIRIT OF STL  CLOUDY    31  27  85 NW8G21    30.37R WCI  23
ST CHARLES     MOCLDY    29  24  82 NW13      30.38R WCI  19

$$
MOZ072>076-082>087-097>100-106>115-271100-
...SOUTH CENTRAL AND SOUTHEAST MISSOURI...

CITY           SKY/WX    TMP DP  RH WIND       PRES   REMARKS
CAPE GIRARDEAU CLOUDY    36  32  85 N18       30.31R WCI  26
FARMINGTON     CLOUDY    32  28  86 N15G21    30.33R WCI  22
POPLAR BLUFF   CLOUDY    37  28  70 NW13      30.33R WCI  29
WEST PLAINS    CLOUDY    32  25  75 NW13G24   30.37R WCI  22

$$


USA.gov is the U.S. government's official web portal to all federal, state and local government web resources and services.